Air Resources Laboratory banner image
Air Resources Laboratory web site National Oceanic and Atmospheric Administration (NOAA)

ok roundup


Office: OUN

ASUS44 KOUN 191000
RWROK

WEATHER ROUNDUP FOR OKLAHOMA
NATIONAL WEATHER SERVICE NORMAN OK
500 AM CDT FRI OCT 19 2018

NOTE: "FAIR" INDICATES FEW OR NO CLOUDS BELOW 12,000 FEET WITH NO
      SIGNIFICANT WEATHER AND/OR OBSTRUCTIONS TO VISIBILITY.

OKZ001>007-009>012-014-015-017-191100-
NORTHWEST OKLAHOMA AND THE PANHANDLE

CITY           SKY/WX    TMP DP  RH WIND       PRES   REMARKS
GAGE           CLOUDY    51  49  92 SW9       30.20F
GUYMON         CLOUDY    48  44  86 SW10      30.14F
$$

OKZ016-021>023-033>039-044-045-191100-
SOUTHWEST OKLAHOMA

CITY           SKY/WX    TMP DP  RH WIND       PRES   REMARKS
LAWTON/REGL    CLOUDY    54  54 100 SE5       30.23F
LAWTON/FT SILL LGT RAIN  54  54 100 S5        30.22S
FREDERICK      LGT RAIN  54  54 100 SE3       30.20F FOG
CLINTON        LGT RAIN  51  51 100 S15       30.22S
HOBART         LGT RAIN  53  52  96 S8        30.24S
ALTUS AFB      CLOUDY    54  53  96 S6        30.23S
$$

OKZ018>020-024>031-191100-
CENTRAL OKLAHOMA

CITY           SKY/WX    TMP DP  RH WIND       PRES   REMARKS
OKLAHOMA CITY  RAIN      51  51 100 S7        30.22F FOG
OKC/WILEY POST LGT RAIN  53  52  96 S10       30.22F
OKC/TINKER AFB LGT RAIN  52  52 100 S6        30.22F
STILLWATER     RAIN      53  51  93 S7        30.24F FOG
GUTHRIE        LGT RAIN  52  51  97 S7        30.22F
$$

OKZ008-013-054>072-191100-
NORTHEAST OKLAHOMA

CITY           SKY/WX    TMP DP  RH WIND       PRES   REMARKS
TULSA          LGT RAIN  52  50  93 CALM      30.25R
TULSA/JONES    HVY RAIN  53  51  93 CALM      30.27R FOG
PONCA CITY     LGT RAIN  53  50  89 S3        30.23S
BARTLESVILLE   LGT RAIN  52  51  97 SW8       30.27R
MUSKOGEE       LGT RAIN  54  51  90 S5        30.26S
$$

OKZ032-040>043-046>053-073>077-191100-
SOUTH CENTRAL/SOUTHEAST OKLAHOMA

CITY           SKY/WX    TMP DP  RH WIND       PRES   REMARKS
MCALESTER      LGT RAIN  55  49  80 CALM      30.25F
$$



ASUS44 KOUN 191010
RWROK

WEATHER ROUNDUP FOR OKLAHOMA
NATIONAL WEATHER SERVICE NORMAN OK
500 AM CDT FRI OCT 19 2018

NOTE: "FAIR" INDICATES FEW OR NO CLOUDS BELOW 12,000 FEET WITH NO
      SIGNIFICANT WEATHER AND/OR OBSTRUCTIONS TO VISIBILITY.

OKZ001>007-009>012-014-015-017-191100-
NORTHWEST OKLAHOMA AND THE PANHANDLE

CITY           SKY/WX    TMP DP  RH WIND       PRES   REMARKS
GAGE           CLOUDY    51  49  92 SW9       30.20F
GUYMON         CLOUDY    48  44  86 SW10      30.14F
ENID/WOODRING  DRIZZLE   52  52 100 S6        30.23R
$$

OKZ016-021>023-033>039-044-045-191100-
SOUTHWEST OKLAHOMA

CITY           SKY/WX    TMP DP  RH WIND       PRES   REMARKS
LAWTON/REGL    CLOUDY    54  54 100 SE5       30.23F
LAWTON/FT SILL CLOUDY    54  54 100 SE5       30.21F
FREDERICK      LGT RAIN  54  54 100 SE3       30.20F FOG
CLINTON        LGT RAIN  51  51 100 S15       30.22S
HOBART         LGT RAIN  53  52  96 S8        30.24S
ALTUS AFB      CLOUDY    54  53  96 S6        30.23S
$$

OKZ018>020-024>031-191100-
CENTRAL OKLAHOMA

CITY           SKY/WX    TMP DP  RH WIND       PRES   REMARKS
OKLAHOMA CITY  RAIN      51  51 100 S7        30.22F FOG
OKC/WILEY POST LGT RAIN  53  52  96 S10       30.22F
OKC/TINKER AFB LGT RAIN  52  52 100 S6        30.22F
STILLWATER     RAIN      53  51  93 S7        30.24F FOG
GUTHRIE        LGT RAIN  52  51  97 S7        30.22F
$$

OKZ008-013-054>072-191100-
NORTHEAST OKLAHOMA

CITY           SKY/WX    TMP DP  RH WIND       PRES   REMARKS
TULSA          RAIN      52  50  93 CALM      30.26R FOG
TULSA/JONES    HVY RAIN  53  51  93 CALM      30.27R FOG
PONCA CITY     LGT RAIN  53  50  89 S3        30.23S
BARTLESVILLE   LGT RAIN  52  51  97 SW8       30.27R
MUSKOGEE       LGT RAIN  54  51  90 S5        30.26S
$$

OKZ032-040>043-046>053-073>077-191100-
SOUTH CENTRAL/SOUTHEAST OKLAHOMA

CITY           SKY/WX    TMP DP  RH WIND       PRES   REMARKS
ARDMORE/DWNTWN CLOUDY    54  52  94 CALM      30.24F
MCALESTER      LGT RAIN  55  49  80 CALM      30.25F
$$